Location: Kańczuga
(49.9832°N, 22.4129°E)
Time: 22:30:19
(UTC+02:00)

ISS - Visible Passes

Search period start: 25 September 2018 00:00
Search period end: 05 October 2018 00:00
Orbit: 403 x 408 km, 51.6° (Epoch: 26 September)

Date Brightness Start Highest point End Pass type
(mag) Time Alt. Az. Time Alt. Az. Time Alt. Az.
25 Sep -3.2 19:28:37 10° SW 19:31:42 38° SSE 19:33:25 21° E visible
25 Sep -1.4 21:04:48 10° W 21:06:06 22° W 21:06:06 22° W visible
26 Sep -4.0 20:12:53 10° WSW 20:16:11 89° SE 20:16:23 78° ENE visible
27 Sep -3.8 19:21:01 10° WSW 19:24:18 66° SSE 19:26:35 18° ENE visible
27 Sep -1.7 20:57:35 10° W 20:59:16 27° WNW 20:59:16 27° WNW visible
28 Sep -3.7 20:05:36 10° W 20:08:54 69° N 20:09:23 57° NE visible
29 Sep -3.8 19:13:37 10° WSW 19:16:56 83° NNW 19:19:26 16° ENE visible
29 Sep -1.8 20:50:18 10° WNW 20:52:07 29° WNW 20:52:07 29° WNW visible
30 Sep -3.6 19:58:18 10° W 20:01:36 62° N 20:02:08 52° NE visible
01 Oct -3.6 19:06:17 10° W 19:09:35 66° N 19:12:07 16° ENE visible
01 Oct -1.9 20:42:56 10° WNW 20:44:47 31° WNW 20:44:47 31° WNW visible
02 Oct -3.7 19:50:56 10° WNW 19:54:14 68° N 19:54:46 55° ENE visible
03 Oct -3.6 18:58:55 10° W 19:02:12 63° N 19:04:44 16° E visible
03 Oct -2.0 20:35:29 10° WNW 20:37:24 31° W 20:37:24 31° W visible
04 Oct -3.9 19:43:29 10° WNW 19:46:48 88° NNE 19:47:23 58° ESE visible
